Home   Weather   Tulsa   Past weeks
Flag for USA

Past Weather in Tulsa, Oklahoma, USA — Yesterday and Last 2 Weeks

Now
75 °F

Partly sunny.


Feels Like: 78 °F
Forecast: 76 / 59 °F
Wind: 8 mph from West

Location: Tulsa International Airport

Current Time: May 19, 2019 at 3:46:33 pm

Latest Report: May 19, 2019 at 2:53 pm


Visibility: 10 mi

Pressure: 29.93 "Hg

Humidity: 52%

Dew Point: 56 °F

Location of TulsaLocation

Past Weather in Tulsa — Graph

°F

Tulsa Temperature Yesterday

Maximum temperature yesterday: 76 °F (at 5:53 am)
Minimum temperature yesterday: 63 °F (at 3:11 pm)
Average temperature yesterday: 69 °F

High & Low Weather Summary for the Past Weeks

 TemperatureHumidityPressure
High89 °F (May 15, 3:53 pm)100% (May 6, 1:37 am)30.18 "Hg (May 6, 1:37 am)
Low42 °F (May 10, 3:53 am)32% (May 14, 4:53 pm)29.56 "Hg (May 18, 6:53 pm)
Average67 °F74%29.86 "Hg
* Reported May 4 1:53 pm — May 19 1:53 pm, Tulsa. Weather by CustomWeather, © 2019

Note: Actual official high and low records may vary slightly from our data, if they occured in-between our weather recording intervals... More about our weather records

Advertising

Tulsa Weather History for the Previous 24 Hours

Scroll right to see more
 ConditionsComfort  
Time TempWeatherWind HumidityBarometerVisibility
1:53 pm
Sun, May 19
74 °FPartly sunny.8 mph56%29.92 "Hg10 mi
12:53 pm73 °FPassing clouds.3 mph59%29.91 "Hg10 mi
11:53 am70 °FSunny.10 mph64%29.90 "Hg10 mi
10:53 am68 °FSunny.7 mph68%29.89 "Hg10 mi
9:53 am65 °FPassing clouds.10 mph73%29.86 "Hg10 mi
8:53 am62 °FSunny.14 mph80%29.84 "Hg10 mi
7:53 am59 °FPassing clouds.12 mph90%29.82 "Hg10 mi
6:53 am56 °FSunny.9 mph93%29.78 "Hg10 mi
5:53 am56 °FClear.9 mph93%29.73 "Hg10 mi
4:53 am58 °FPassing clouds.No wind97%29.70 "Hg10 mi
4:30 am58 °FPartly cloudy.No wind100%29.72 "Hg10 mi
3:53 am59 °FOvercast.No wind100%29.68 "Hg10 mi
2:53 am58 °FPassing clouds.3 mph100%29.65 "Hg10 mi
1:53 am57 °FPassing clouds.7 mph96%29.65 "Hg10 mi
1:26 am57 °FPassing clouds.3 mph93%29.70 "Hg10 mi
12:59 am57 °FThundershowers. Partly cloudy.9 mph93%29.65 "Hg10 mi
12:38 am57 °FStrong thunderstorms. Fog.14 mph93%29.69 "Hg2 mi
12:15 am65 °FLight rain. Fog.3 mph97%29.65 "Hg3 mi
11:53 pm
Sat, May 18
65 °FLight rain. Fog.3 mph97%29.62 "Hg4 mi
10:53 pm66 °FLow clouds.7 mph90%29.61 "Hg10 mi
9:53 pm65 °FOvercast.12 mph91%29.59 "Hg10 mi
8:53 pm66 °FOvercast.9 mph87%29.56 "Hg10 mi
8:31 pm66 °FOvercast.15 mph84%29.57 "Hg10 mi
7:53 pm66 °FPartly sunny.14 mph87%29.56 "Hg10 mi
6:53 pm66 °FPartly sunny.12 mph87%29.56 "Hg10 mi
5:53 pm65 °FPartly sunny.7 mph87%29.57 "Hg10 mi
4:53 pm65 °FPartly sunny.5 mph91%29.57 "Hg10 mi
3:53 pm64 °FPartly sunny.8 mph94%29.57 "Hg10 mi
3:11 pm63 °FLight rain. Mostly cloudy.18 mph97%29.59 "Hg10 mi
Weather by CustomWeather, © 2019

See weather overview